Weather History for New Castle, PA

Change the Weather History Date:

Saturday, February 16, 2013

  Actual Average Record
Temperature  
Mean Temperature 22 °F -  
Max Temperature 26 °F 39 °F 68 °F (1954)
Min Temperature 17 °F 20 °F -10 °F (1963)
Degree Days  
Heating Degree Days 44    
Moisture  
Dew Point 15 °F    
Average Humidity 78    
Maximum Humidity 93    
Minimum Humidity 47    
Precipitation  
Precipitation 0.00 in - - ()
Sea Level Pressure  
Sea Level Pressure 30.05 in    
Wind  
Wind Speed 3 mph (NNW)    
Max Wind Speed 9 mph    
Max Gust Speed -    
Visibility 8 miles    
Events Snow    
Averages and records for this station are not official NWS values.
T = Trace of Precipitation, MM = Missing Value Source: NWS Daily Summary

Daily Weather History Graph

Daily Weather History Graph

Search for Another Location

Airport:

Trip Planner

Search our weather history database for the weather conditions in past years. The results will help you decide how hot, cold, wet, or windy it might be!

Date:

Astronomy

Feb. 16, 2013 Rise Set
Actual Time 7:14 AM EST 5:57 PM EST
Civil Twilight 6:46 AM EST 6:25 PM EST
Nautical Twilight 6:14 AM EST 6:57 PM EST
Astronomical Twilight 5:42 AM EST 7:29 PM EST
Moon 10:22 AM EST (2/16) No Moon Set
Length of Visible Light 11h 39m
Length of Day
10h 43m
Waxing Crescent, 39% of the Moon is Illuminated
Feb 16
Waxing Crescent
Feb 17
First Quarter
Feb 25
Full
Mar 4
Last Quarter
Mar 11
New

Hourly Weather History & Observations

Time (EST) Temp. Windchill Dew Point Humidity Pressure Visibility Wind Dir Wind Speed Gust Speed Precip Events Conditions
12:56 AM 22.1 °F - 18.1 °F 85% 30.14 in 10.0 mi Calm Calm - N/A   Mostly Cloudy
1:56 AM 22.1 °F - 18.1 °F 85% 30.14 in 10.0 mi Calm Calm - 0.00 in Snow Light Snow
2:56 AM 22.1 °F - 18.1 °F 85% 30.12 in 10.0 mi Calm Calm - 0.00 in   Mostly Cloudy
3:56 AM 21.0 °F - 17.1 °F 85% 30.11 in 10.0 mi Calm Calm - N/A   Mostly Cloudy
4:56 AM 18.1 °F - 16.2 °F 92% 30.11 in 10.0 mi Calm Calm - N/A   Partly Cloudy
5:56 AM 19.0 °F - 16.2 °F 89% 30.11 in 10.0 mi Calm Calm - N/A   Overcast
6:56 AM 18.1 °F - 16.2 °F 92% 30.11 in 9.0 mi Calm Calm - N/A   Scattered Clouds
7:56 AM 19.0 °F - 17.1 °F 92% 30.12 in 6.0 mi Calm Calm - N/A   Overcast
8:56 AM 22.1 °F - 19.0 °F 88% 30.12 in 10.0 mi Calm Calm - 0.00 in   Clear
9:56 AM 26.1 °F - 16.2 °F 66% 30.10 in 10.0 mi Calm Calm - N/A   Scattered Clouds
10:32 AM 24.8 °F 16.9 °F 15.8 °F 69% 30.01 in 2.5 mi WNW 6.9 mph - 0.00 in Snow Light Snow
10:41 AM 24.8 °F 16.1 °F 15.8 °F 69% 30.01 in 7.0 mi WNW 8.1 mph - 0.00 in Snow Light Snow
10:56 AM 24.1 °F 16.0 °F 18.1 °F 78% 30.10 in 4.0 mi West 6.9 mph - 0.00 in Snow Light Snow
11:56 AM 26.1 °F 16.8 °F 14.0 °F 60% 30.08 in 10.0 mi WSW 9.2 mph - 0.00 in   Partly Cloudy
12:56 PM 24.1 °F 15.2 °F 16.2 °F 72% 30.06 in 10.0 mi WNW 8.1 mph - 0.00 in Snow Light Snow
1:56 PM 26.1 °F 17.6 °F 10.0 °F 51% 30.04 in 10.0 mi West 8.1 mph - 0.00 in   Mostly Cloudy
2:56 PM 26.1 °F 18.4 °F 10.0 °F 51% 30.04 in 10.0 mi North 6.9 mph - N/A   Mostly Cloudy
3:56 PM 26.1 °F 17.6 °F 8.1 °F 47% 30.04 in 10.0 mi WNW 8.1 mph - N/A   Mostly Cloudy
4:56 PM 24.1 °F 17.0 °F 14.0 °F 65% 30.05 in 10.0 mi Variable 5.8 mph - 0.00 in   Scattered Clouds
5:56 PM 23.0 °F - 12.0 °F 63% 30.06 in 10.0 mi Calm Calm - N/A   Clear
6:56 PM 21.0 °F 14.6 °F 15.1 °F 78% 30.06 in 10.0 mi NE 4.6 mph - N/A   Clear
8:56 PM 17.1 °F - 13.1 °F 84% 30.04 in 10.0 mi Calm Calm - N/A   Clear
10:30 PM 19.4 °F 14.3 °F 15.8 °F 86% 29.94 in 10.0 mi NNE 3.5 mph - 0.00 in Snow Light Snow
10:49 PM 19.4 °F 9.5 °F 15.8 °F 86% 29.93 in 2.0 mi North 8.1 mph - 0.00 in Snow Light Snow
10:56 PM 19.0 °F 9.0 °F 16.2 °F 89% 30.03 in 1.5 mi North 8.1 mph - 0.00 in Snow Light Snow
11:09 PM 17.6 °F 6.4 °F 15.8 °F 93% 29.93 in 2.5 mi North 9.2 mph - 0.00 in Snow Light Snow
11:14 PM 17.6 °F 6.4 °F 15.8 °F 93% 29.93 in 1.8 mi North 9.2 mph - 0.00 in Snow Light Snow
11:26 PM 17.6 °F 9.3 °F 14.0 °F 86% 29.93 in 3.0 mi NNE 5.8 mph - 0.00 in Snow Light Snow
11:56 PM 18.1 °F - 13.1 °F 81% 30.02 in 10.0 mi Calm Calm - 0.00 in   Overcast